Weather observations for the past three days for
Gatesville, City-County Airport
Imperial (Metric)
Date Time (cdt) Wind (mph) Vis. (mi.) Weather Sky Cond. Temperature (ºF) Relative Humidity Wind Chill (°F) Heat Index (°F) Pressure Precipitation (in)
Air Dwpt 6 hour altimeter (in) sea level (mb) 1 hr 3 hr 6 hr
Max. Min.
25 11:55 NE 10 10.00 Partly Cloudy FEW032 SCT043 SCT075 84.2 75.2 74% 92 30.14 0.0
25 11:35 NE 9 10.00 Partly Cloudy FEW030 SCT037 86 75.2 70% 95 30.14 0.0
25 11:15 Vrbl 7 G 14 10.00 Partly Cloudy FEW029 FEW037 SCT065 84.2 75.2 74% 92 30.14 0.0
25 10:55 NE 7 10.00 Mostly Cloudy FEW026 SCT033 BKN085 84.2 75.2 74% 92 30.15 0.0
25 10:35 E 7 10.00 Partly Cloudy SCT025 SCT030 SCT035 84.2 77 79% 94 30.15 0.0
25 10:15 Vrbl 3 10.00 Fair CLR 82.4 77 84% 91 30.14 0.0
25 09:55 Vrbl 3 10.00 A Few Clouds FEW060 80.6 77 89% 87 30.14 0.0
25 09:35 Vrbl 5 10.00 Partly Cloudy SCT060 80.6 77 89% 87 30.14 0.0
25 09:15 Calm 10.00 Fair CLR 80.6 77 89% 87 30.14 0.0
25 08:55 NW 3 10.00 Fair CLR 78.8 77 94% 83 30.14 0.0
25 08:35 NW 3 10.00 Partly Cloudy SCT060 77 77 100% 78 30.14 0.0
25 08:15 Calm 10.00 Partly Cloudy SCT060 75.2 75.2 100% 73 30.14 0.0
25 07:55 Calm 10.00 Fair CLR 73.4 73.4 100% 30.13 0.0
25 07:35 Calm 10.00 Fair CLR 71.6 71.6 100% 30.13 0.0
25 07:15 Calm 10.00 Fair CLR 71.6 71.6 100% 30.12 0.0
25 06:55 Calm 10.00 Fair CLR 69.8 69.8 100% 30.12 0.0
25 06:35 NW 3 10.00 Fair CLR 69.8 69.8 100% 30.12 0.0
25 06:15 Calm 10.00 Fair CLR 69.8 69.8 100% 30.11 0.0
25 05:55 Calm 10.00 Fair CLR 71.6 71.6 100% 30.11 0.0
25 05:35 Calm 10.00 Fair CLR 69.8 69.8 100% 30.11 0.0
25 05:15 Calm 10.00 Fair CLR 71.6 71.6 100% 30.11 0.0
25 04:55 Calm 10.00 Fair CLR 71.6 71.6 100% 30.11 0.0
25 04:35 Calm 10.00 Fair CLR 71.6 71.6 100% 30.11 0.0
25 04:15 Calm 10.00 Fair CLR 71.6 71.6 100% 30.11 0.0
25 03:55 Calm 10.00 Fair CLR 71.6 71.6 100% 30.11 0.0
25 03:35 Calm 10.00 Fair CLR 73.4 73.4 100% 30.11 0.0
25 03:15 Calm 10.00 Fair CLR 73.4 73.4 100% 30.12 0.0
25 02:55 Calm 10.00 Fair CLR 73.4 73.4 100% 30.12 0.0
25 02:35 Calm 10.00 Fair CLR 73.4 73.4 100% 30.12 0.0
25 02:15 Calm 10.00 Fair CLR 73.4 73.4 100% 30.12 0.0
25 01:55 Calm 10.00 Fair CLR 73.4 73.4 100% 30.12 0.0
25 01:35 Calm 10.00 Fair CLR 73.4 73.4 100% 30.12 0.0
25 01:15 Calm 10.00 Fair CLR 75.2 73.4 94% 74 30.12 0.0
25 00:55 Calm 10.00 Fair CLR 73.4 73.4 100% 30.12 0.0
25 00:35 Calm 10.00 Fair CLR 75.2 73.4 94% 74 30.12 0.0
25 00:15 Calm 10.00 Fair CLR 77 73.4 89% 78 30.13 0.0
24 23:55 Calm 10.00 Fair CLR 75.2 73.4 94% 74 30.12 0.0
24 23:35 Calm 10.00 Fair CLR 75.2 73.4 94% 74 30.12 0.0
24 23:15 Calm 10.00 Fair CLR 77 73.4 89% 78 30.11 0.0
24 22:55 Calm 10.00 Fair CLR 78.8 73.4 84% 82 30.12 0.0
24 22:35 Calm 10.00 Fair CLR 77 73.4 89% 78 30.11 0.0
24 22:15 Calm 10.00 Fair CLR 78.8 73.4 84% 82 30.11 0.0
24 21:55 Calm 10.00 Fair CLR 78.8 73.4 84% 82 30.11 0.0
24 21:35 Calm 10.00 Fair CLR 80.6 73.4 79% 85 30.1 0.0
24 21:15 Calm 10.00 Fair CLR 80.6 73.4 79% 85 30.09 0.0
24 20:55 Calm 10.00 Fair CLR 82.4 71.6 70% 87 30.09 0.0
24 20:35 Calm 10.00 Fair CLR 82.4 71.6 70% 87 30.09 0.0
24 20:15 NE 3 10.00 Fair CLR 84.2 69.8 62% 88 30.09 0.0
24 19:55 Vrbl 5 10.00 Fair CLR 86 71.6 62% 92 30.09 0.0
24 19:35 Vrbl 6 10.00 Fair CLR 87.8 69.8 55% 93 30.08 0.0
24 19:15 NE 7 10.00 Fair CLR 87.8 68 52% 91 30.08 0.0
24 18:55 NE 6 10.00 Fair CLR 87.8 68 52% 91 30.08 0.0
24 18:35 Vrbl 5 10.00 Fair CLR 87.8 68 52% 91 30.08 0.0
24 18:15 Vrbl 6 10.00 Fair CLR 87.8 68 52% 91 30.08 0.0
24 17:55 Vrbl 5 G 12 10.00 A Few Clouds FEW050 89.6 68 49% 93 30.08 0.0
24 17:35 Vrbl 7 10.00 Partly Cloudy SCT050 89.6 68 49% 93 30.08 0.0
24 17:15 E 7 G 14 10.00 A Few Clouds FEW048 89.6 69.8 52% 95 30.08 0.0
24 16:55 Vrbl 7 10.00 A Few Clouds FEW049 89.6 69.8 52% 95 30.08 0.0
24 16:35 Vrbl 7 G 15 10.00 Partly Cloudy SCT049 89.6 68 49% 93 30.09 0.0
24 16:15 NE 8 10.00 Mostly Cloudy BKN050 87.8 69.8 55% 93 30.09 0.0
24 15:55 E 6 10.00 Partly Cloudy SCT049 89.6 69.8 52% 95 30.09 0.0
24 15:35 E 9 10.00 A Few Clouds FEW049 89.6 69.8 52% 95 30.1 0.0
24 15:15 Vrbl 6 10.00 Partly Cloudy SCT047 SCT065 89.6 69.8 52% 95 30.1 0.0
24 14:55 Vrbl 7 10.00 A Few Clouds FEW042 89.6 69.8 52% 95 30.11 0.0
24 14:35 NE 7 10.00 A Few Clouds FEW040 FEW047 87.8 71.6 59% 94 30.12 0.0
24 14:15 E 8 G 16 10.00 Mostly Cloudy BKN041 86 71.6 62% 92 30.12 0.0
24 13:55 Vrbl 7 10.00 Partly Cloudy SCT041 SCT075 87.8 71.6 59% 94 30.12 0.0
24 13:35 NE 8 10.00 Partly Cloudy SCT041 SCT075 86 71.6 62% 92 30.13 0.0
24 13:15 Vrbl 6 10.00 A Few Clouds FEW042 FEW048 86 73.4 66% 93 30.13 0.0
24 12:55 Vrbl 7 10.00 A Few Clouds FEW032 FEW040 FEW047 86 73.4 66% 93 30.14 0.0
24 12:35 E 5 10.00 Mostly Cloudy SCT031 SCT039 BKN046 84.2 73.4 70% 91 30.15 0.0
24 12:15 NE 6 10.00 Mostly Cloudy BKN030 BKN037 BKN043 82.4 73.4 74% 88 30.15 0.0
24 11:55 Vrbl 5 10.00 Partly Cloudy FEW029 SCT040 SCT046 84.2 73.4 70% 91 30.16 0.0
24 11:35 N 7 10.00 Partly Cloudy FEW024 FEW029 SCT039 82.4 73.4 74% 88 30.16 0.0
24 11:15 Calm 10.00 Partly Cloudy SCT022 BKN029 SCT034 80.6 75.2 84% 86 30.16 0.0
24 10:55 NE 6 10.00 Mostly Cloudy BKN022 BKN026 BKN033 80.6 75.2 84% 86 30.16 0.0
24 10:35 N 6 10.00 Partly Cloudy SCT019 SCT025 80.6 75.2 84% 86 30.16 0.0
24 10:15 N 8 10.00 Partly Cloudy SCT016 80.6 75.2 84% 86 30.15 0.0
24 09:55 N 7 10.00 Overcast OVC015 78.8 75.2 89% 82 30.15 0.0
24 09:35 N 7 10.00 Overcast OVC013 77 75.2 94% 78 30.15 0.0
24 09:15 N 6 10.00 Mostly Cloudy FEW005 BKN010 BKN014 75.2 75.2 100% 73 30.15 0.0
24 08:55 Calm 10.00 Mostly Cloudy BKN004 BKN014 73.4 73.4 100% 30.15 0.0
24 08:35 Calm 10.00 Mostly Cloudy BKN003 BKN013 73.4 73.4 100% 30.15 0.0
24 08:15 NW 5 10.00 Mostly Cloudy BKN003 BKN014 73.4 73.4 100% 30.14 0.0
24 07:55 Calm 10.00 Mostly Cloudy BKN002 BKN015 71.6 71.6 100% 30.14 0.0
24 07:35 Calm 6.00 Fog/Mist OVC002 71.6 71.6 100% 30.14 0.0
24 07:15 Calm 3.00 Fog/Mist OVC002 71.6 71.6 100% 30.13 0.0
24 06:55 Calm 1.50 Fog/Mist OVC002 73.4 73.4 100% 30.13 0.0
24 06:35 Calm 3.00 Fog/Mist OVC002 73.4 73.4 100% 30.13 0.0
24 06:15 Calm 3.00 Fog/Mist BKN002 BKN010 OVC017 73.4 73.4 100% 30.13 0.0
24 05:55 Calm 9.00 Overcast BKN002 BKN010 OVC017 73.4 73.4 100% 30.13 0.0
24 05:35 Calm 4.00 Fog/Mist OVC002 73.4 73.4 100% 30.13 0.0
24 05:15 Calm 4.00 Fog/Mist OVC002 73.4 73.4 100% 30.12 0.0
24 04:55 Calm 1.25 Fog/Mist OVC001 73.4 73.4 100% 30.12 0.0
24 04:35 Calm 1.25 Fog/Mist OVC001 73.4 73.4 100% 30.12 0.0
24 04:15 Calm 0.75 Fog/Mist OVC001 73.4 73.4 100% 30.12 0.0
24 03:55 Calm 5.00 Fog/Mist OVC002 73.4 73.4 100% 30.12 0.0
24 03:35 Calm 10.00 Overcast OVC002 73.4 73.4 100% 30.11 0.0
24 03:15 Calm 10.00 Overcast OVC003 71.6 71.6 100% 30.11 0.0
24 02:55 Calm 10.00 Overcast OVC003 73.4 73.4 100% 30.11 0.0
24 02:35 Calm 10.00 Mostly Cloudy BKN003 71.6 71.6 100% 30.11 0.0
24 02:15 Calm 10.00 Fair CLR 71.6 71.6 100% 30.1 0.0
24 01:55 Calm 10.00 Fair CLR 71.6 71.6 100% 30.1 0.0
24 01:35 Calm 10.00 Fair CLR 71.6 71.6 100% 30.1 0.0
24 01:15 Calm 10.00 A Few Clouds FEW008 73.4 73.4 100% 30.1 0.0
24 00:55 Calm 10.00 Mostly Cloudy BKN008 73.4 73.4 100% 30.1 0.0
24 00:15 Calm 10.00 A Few Clouds FEW008 73.4 73.4 100% 30.1 0.0
23 23:55 Calm 10.00 Fair CLR 73.4 73.4 100% 30.1 0.0
23 23:35 Calm 10.00 Fair CLR 73.4 73.4 100% 30.09 0.0
23 23:15 Calm 10.00 Fair CLR 73.4 73.4 100% 30.09 0.0
23 22:55 Calm 10.00 Fair CLR 73.4 73.4 100% 30.08 0.0
23 22:35 Calm 10.00 Fair CLR 75.2 75.2 100% 73 30.08 0.0
23 22:15 S 5 10.00 Fair CLR 75.2 75.2 100% 73 30.07 0.0
23 21:55 S 5 10.00 Fair CLR 75.2 75.2 100% 73 30.06 0.0
23 21:35 SE 5 10.00 Fair CLR 75.2 75.2 100% 73 30.06 0.0
23 21:15 SE 3 10.00 Fair CLR 77 77 100% 78 30.06 0.0
23 20:55 SE 3 10.00 Fair CLR 77 77 100% 78 30.05 0.0
23 20:35 Calm 10.00 Fair CLR 77 77 100% 78 30.05 0.0
23 20:15 SE 5 10.00 Fair CLR 78.8 77 94% 83 30.05 0.0
23 19:55 SE 7 10.00 Fair CLR 80.6 77 89% 87 30.04 0.0
23 19:35 SE 7 10.00 A Few Clouds FEW120 82.4 75.2 79% 89 30.04 0.0
23 19:15 SE 7 10.00 Partly Cloudy FEW095 SCT120 82.4 75.2 79% 89 30.05 0.0
23 18:55 SE 7 10.00 Partly Cloudy FEW100 SCT120 84.2 75.2 74% 92 30.04 0.0
23 18:35 Vrbl 5 10.00 Partly Cloudy SCT100 SCT120 82.4 73.4 74% 88 30.04 0.0
23 18:15 Vrbl 6 10.00 Partly Cloudy FEW095 SCT120 82.4 75.2 79% 89 30.03 0.0
23 17:55 Calm 10.00 Mostly Cloudy BKN095 82.4 75.2 79% 89 30.04 0.0
23 17:35 E 6 10.00 Overcast FEW024 SCT036 OVC100 82.4 75.2 79% 89 30.04 0.0
23 17:15 SE 5 10.00 Mostly Cloudy BKN024 BKN030 BKN035 82.4 75.2 79% 89 30.05 0.0
23 16:55 Calm 10.00 Partly Cloudy FEW021 FEW026 SCT110 82.4 75.2 79% 89 30.05 0.0
23 16:35 Vrbl 6 10.00 Partly Cloudy FEW021 FEW026 SCT100 82.4 75.2 79% 89 30.05 0.0
23 16:15 Vrbl 5 10.00 Partly Cloudy SCT100 82.4 75.2 79% 89 30.05 0.0
23 15:55 Calm 10.00 Fair CLR 80.6 75.2 84% 86 30.05 0.0
23 15:35 Calm 10.00 Fair CLR 80.6 75.2 84% 86 30.05 0.0
23 15:15 Calm 10.00 Fair CLR 80.6 75.2 84% 86 30.05 0.0
23 14:55 Calm 10.00 Fair CLR 80.6 75.2 84% 86 30.06 0.0
23 14:35 Calm 10.00 Mostly Cloudy BKN060 80.6 75.2 84% 86 30.08 0.0
23 14:15 Calm 10.00 Mostly Cloudy BKN060 80.6 75.2 84% 86 30.09 0.0
23 13:55 Calm 10.00 Mostly Cloudy FEW016 FEW021 BKN055 78.8 75.2 89% 82 30.08 0.0
23 13:35 Calm 10.00 Partly Cloudy SCT016 SCT021 SCT055 78.8 75.2 89% 82 30.09 0.0
23 13:15 Calm 10.00 Fair CLR 78.8 77 94% 83 30.08 0.0
23 12:55 Calm 10.00 Fair CLR 78.8 77 94% 83 30.08 0.0
23 12:35 W 5 10.00 A Few Clouds FEW065 78.8 77 94% 83 30.08 0.0
23 12:15 Calm 10.00 Mostly Cloudy BKN060 BKN065 77 75.2 94% 78 30.09 0.0
23 11:55 SW 5 10.00 Mostly Cloudy BKN060 BKN070 77 77 100% 78 30.1 0.0
23 11:35 W 3 10.00 Mostly Cloudy BKN060 77 77 100% 78 30.1 0.0
23 11:15 Calm 10.00 Overcast OVC060 77 77 100% 78 30.1 0.0
23 10:55 Calm 10.00 Mostly Cloudy BKN050 75.2 75.2 100% 73 30.1 0.0 0.02
23 10:35 NW 5 10.00 Fair CLR 75.2 75.2 100% 73 30.1 0.0
23 10:15 Calm 10.00 Unknown Precip CLR 75.2 75.2 100% 73 30.09 0.0
23 09:55 Calm 10.00 Unknown Precip FEW065 75.2 75.2 100% 73 30.09 0.0
23 09:35 Calm 10.00 Mostly Cloudy FEW048 BKN070 75.2 75.2 100% 73 30.09 0.0
23 09:15 Calm 10.00 Overcast OVC070 75.2 75.2 100% 73 30.08 0.0
23 08:55 Calm 10.00 Overcast FEW023 SCT055 OVC070 75.2 75.2 100% 73 30.07 0.0
23 08:35 W 3 10.00 Overcast BKN018 BKN023 OVC070 75.2 75.2 100% 73 30.07 0.0
23 08:15 Calm 10.00 Overcast OVC016 75.2 75.2 100% 73 30.06 0.0
23 07:55 Calm 10.00 Overcast OVC016 75.2 75.2 100% 73 30.06 0.0
23 07:35 Calm 10.00 Overcast SCT016 OVC070 75.2 75.2 100% 73 30.06 0.0
23 07:15 Calm 10.00 Overcast SCT010 BKN016 OVC075 73.4 73.4 100% 30.06 0.0
23 06:55 Calm 10.00 Mostly Cloudy FEW005 SCT008 BKN012 73.4 73.4 100% 30.05 0.0 0.01
23 06:35 NW 3 10.00 Partly Cloudy FEW005 FEW012 SCT048 73.4 73.4 100% 30.05 0.0
23 06:15 Calm 10.00 Mostly Cloudy SCT048 SCT055 BKN095 73.4 73.4 100% 30.03 0.0
23 05:55 Calm 10.00 Mostly Cloudy FEW045 SCT055 BKN070 75.2 75.2 100% 73 30.03 0.0 0.02
23 05:35 Calm 10.00 Mostly Cloudy SCT070 BKN110 73.4 73.4 100% 30.02 0.0
23 05:15 Calm 10.00 Mostly Cloudy FEW050 SCT065 BKN070 73.4 73.4 100% 30.02 0.0
23 04:55 Calm 10.00 Overcast OVC070 73.4 73.4 100% 30.02 0.0
23 04:35 Calm 10.00 Overcast OVC070 75.2 75.2 100% 73 30.02 0.0
23 04:15 Calm 10.00 Overcast FEW060 BKN075 OVC110 75.2 75.2 100% 73 30.01 0.0
23 03:55 Calm 10.00 Overcast FEW065 FEW075 OVC110 73.4 73.4 100% 30.01 0.0
23 03:35 Calm 10.00 Mostly Cloudy FEW070 BKN110 75.2 75.2 100% 73 30.01 0.0
23 03:15 S 5 10.00 Partly Cloudy FEW050 SCT070 SCT100 73.4 73.4 100% 30.01 0.0
23 02:55 Calm 10.00 Overcast SCT055 BKN070 OVC110 73.4 73.4 100% 30.01 0.0 0.01
23 02:35 S 3 10.00 Mostly Cloudy BKN070 BKN100 BKN120 73.4 73.4 100% 30.01 0.0
23 02:15 SE 6 10.00 Mostly Cloudy FEW047 SCT075 BKN120 73.4 73.4 100% 30.01 0.0
23 01:35 SE 3 10.00 A Few Clouds FEW110 75.2 75.2 100% 73 30.01 0.0
23 01:15 Calm 10.00 A Few Clouds FEW120 75.2 75.2 100% 73 30.02 0.0
23 00:55 Calm 10.00 Partly Cloudy FEW075 FEW085 SCT110 75.2 75.2 100% 73 30.03 0.0 0.03
23 00:35 Calm 10.00 Mostly Cloudy FEW034 SCT075 BKN120 75.2 75.2 100% 73 30.03 0.0
23 00:15 Calm 10.00 Mostly Cloudy FEW034 SCT045 BKN080 75.2 75.2 100% 73 30.04 0.0
22 23:55 Calm 10.00 Mostly Cloudy SCT042 BKN055 BKN065 75.2 75.2 100% 73 30.04 0.0
22 23:35 N 5 10.00 Mostly Cloudy SCT041 BKN060 BKN075 75.2 75.2 100% 73 30.03 0.0
22 23:15 Calm 10.00 Mostly Cloudy FEW038 SCT075 BKN120 75.2 75.2 100% 73 30.03 0.0
22 22:55 Calm 10.00 Overcast FEW040 SCT065 OVC120 75.2 75.2 100% 73 30.03 0.0
22 22:35 Calm 10.00 Overcast FEW070 BKN095 OVC120 75.2 75.2 100% 73 30.03 0.0
22 22:15 SE 6 10.00 Mostly Cloudy SCT095 BKN110 75.2 75.2 100% 73 30.02 0.0
22 21:55 SE 3 10.00 Overcast OVC110 75.2 75.2 100% 73 30.02 0.0
22 21:15 Vrbl 3 10.00 Mostly Cloudy FEW011 SCT031 BKN047 75.2 75.2 100% 73 30.01 0.0
22 20:55 Calm 10.00 Overcast BKN007 BKN015 OVC019 75.2 75.2 100% 73 30.01 0.0
22 20:35 Calm 10.00 Overcast BKN007 OVC110 75.2 75.2 100% 73 30 0.0
22 20:15 Calm 10.00 Mostly Cloudy FEW008 BKN110 75.2 75.2 100% 73 30 0.0
22 19:55 Calm 10.00 Partly Cloudy SCT110 75.2 75.2 100% 73 29.99 0.0
22 19:35 Calm 10.00 Mostly Cloudy FEW040 FEW090 BKN110 75.2 75.2 100% 73 29.99 0.0
22 19:15 Calm 10.00 Mostly Cloudy BKN100 75.2 75.2 100% 73 29.99 0.0
22 18:55 Calm 10.00 Mostly Cloudy BKN100 75.2 75.2 100% 73 29.99 0.0
22 18:35 Calm 10.00 Partly Cloudy SCT100 73.4 73.4 100% 29.98 0.0
22 18:15 Vrbl 3 10.00 Partly Cloudy FEW005 FEW019 SCT029 73.4 73.4 100% 30 0.0
22 17:55 Vrbl 3 G 13 5.00 Thunderstorm in Vicinity Unknown Precip Fog/Mist SCT004 BKN019 OVC055 73.4 73.4 100% 30 0.0 0.49
22 17:35 S 13 G 20 10.00 Thunderstorm in Vicinity SCT030 BKN040 OVC075 82.4 73.4 74% 88 29.99 0.0
22 17:15 NE 6 10.00 Mostly Cloudy FEW031 SCT050 BKN065 82.4 75.2 79% 89 29.97 0.0
22 16:55 E 3 10.00 Partly Cloudy SCT065 SCT075 SCT120 84.2 75.2 74% 92 29.98 0.0
22 16:15 Calm 10.00 A Few Clouds FEW020 84.2 77 79% 94 29.98 0.0
22 15:55 SE 6 10.00 A Few Clouds FEW018 84.2 77 79% 94 29.99 0.0
22 15:35 Vrbl 5 10.00 A Few Clouds FEW017 FEW110 82.4 77 84% 91 29.99 0.0
22 15:15 Vrbl 5 10.00 A Few Clouds FEW022 FEW029 80.6 77 89% 87 30 0.0
22 14:55 Vrbl 6 10.00 Mostly Cloudy FEW014 BKN020 BKN025 78.8 77 94% 83 30.01 0.0
22 14:35 Vrbl 3 10.00 Mostly Cloudy BKN020 82.4 77 84% 91 30.01 0.0
22 14:15 Vrbl 5 10.00 Fair CLR 82.4 77 84% 91 30.01 0.0
22 13:55 SW 7 10.00 Thunderstorm in Vicinity CLR 80.6 77 89% 87 30.01 0.0
22 13:35 W 9 10.00 Thunderstorm in Vicinity CLR 80.6 75.2 84% 86 30.01 0.0
22 13:15 W 10 10.00 Thunderstorm in Vicinity FEW055 82.4 75.2 79% 89 30.02 0.0
22 12:55 W 12 10.00 Thunderstorm in Vicinity FEW024 FEW030 SCT035 84.2 77 79% 94 30.01 0.0
22 12:35 NW 7 10.00 Thunderstorm in Vicinity SCT021 BKN028 84.2 77 79% 94 30.01 0.0
22 12:15 Vrbl 3 10.00 Thunderstorm in Vicinity BKN022 BKN070 BKN085 84.2 77 79% 94 30.02 0.0
Date Time (cdt) Wind (mph) Vis. (mi.) Weather Sky Cond. Air Dwpt Max. Min. Relative Humidity Wind Chill (°F) Heat Index (°F) altimeter (in) sea level (mb) 1 hr 3 hr 6 hr
6 hour
Temperature (ºF) Pressure Precipitation (in)